Regional Weather Roundup
Issued by NWS

Home | Current Version | Previous Version | Text Only | Print | Product List | Glossary Off
Versions: 1 2 3 4 5 6 7 8 9 10 11 12 13 14 15 16 17 18 19 20 21 22 23 24 25 26 27 28 29 30 31 32 33 34 35 36 37 38 39 40 41 42 43 44 45 46 47 48 49 50

205
ASUS43 KOAX 261610
RWRNE

WEATHER ROUNDUP FOR NEBRASKA
NATIONAL WEATHER SERVICE OMAHA NE
1100 AM CDT TUE JUL 26 2016

NOTES: SATELLITE DATA IS BEING USED TO AUGMENT CLOUD COVER ABOVE
       12000 FEET.
       "FAIR" INDICATES FEW OR NO CLOUDS BELOW 12,000 FEET WITH NO
       SIGNIFICANT WEATHER AND/OR OBSTRUCTIONS TO VISIBILITY.

  * THESE STATIONS DO NOT REPORT WEATHER SUCH AS RAIN...SNOW OR FOG.

NEZ001>004-019>022-054>056-261700-
NEBRASKA PANHANDLE

CITY           SKY/WX    TMP DP  RH WIND       PRES   REMARKS
SCOTTSBLUFF    SUNNY     82  55  39 SE7       30.05F
ALLIANCE       SUNNY     76  63  64 S21       30.06F
CHADRON        MOSUNNY   78  61  55 E12       30.06F
KIMBALL        CLOUDY    80  55  41 S13       30.14S
SIDNEY         SUNNY     80  61  52 S16       30.11F
$$

NEZ057>060-069>072-079>082-261700-
SOUTHWEST NEBRASKA

CITY           SKY/WX    TMP DP  RH WIND       PRES   REMARKS
NORTH PLATTE   SUNNY     79  66  64 S15       30.08F
IMPERIAL       SUNNY     79  66  64 S17       30.08F
LEXINGTON      SUNNY     76  66  71 S10       30.10F
MCCOOK         SUNNY     79  66  64 S12       30.09F
OGALLALA       MOSUNNY   80  66  62 S13G20    30.08S
$$

NEZ005>010-023>029-035>040-094-261700-
NORTH CENTRAL NEBRASKA

CITY           SKY/WX    TMP DP  RH WIND       PRES   REMARKS
VALENTINE      SUNNY     83  63  50 SW17      30.05S
AINSWORTH      SUNNY     81  68  64 S15       30.06S
BROKEN BOW     SUNNY     76  67  73 S14       30.09F
O`NEILL        SUNNY     82  58  44 S12       30.07F
ORD            SUNNY     78  66  66 S12       30.07S
THEDFORD       SUNNY     81  66  60 S13G20    30.07F
$$

NEZ041-046>049-061>064-073>077-083>087-261700-
SOUTH CENTRAL NEBRASKA

CITY           SKY/WX    TMP DP  RH WIND       PRES   REMARKS
GRAND ISLAND   SUNNY     81  64  56 S13G21    30.10F
AURORA         SUNNY     79  66  64 S9        30.10S
HASTINGS       SUNNY     79  65  62 S9        30.10F
HEBRON         SUNNY     81  67  63 SE7       30.08S
HOLDREGE       MOSUNNY   77  66  67 S9        30.10S
KEARNEY *      SUNNY     79  66  65 S12       30.10F
YORK           SUNNY     79  66  65 SE6       30.10S
$$

NEZ011>018-030>034-042>045-261700-
NORTHEAST NEBRASKA

CITY           SKY/WX    TMP DP  RH WIND       PRES   REMARKS
NORFOLK        SUNNY     80  65  59 S15       30.09R
ALBION         SUNNY     78  66  66 S13       30.09S
BLAIR          SUNNY     81  64  57 S9        30.09S
FREMONT        SUNNY     81  64  55 SE8       30.10S
TEKAMAH        SUNNY     82  65  56 SE9       30.09R
WAYNE          SUNNY     79  69  72 S10       30.10R
$$

NEZ050>053-065>068-078-088>093-261700-
SOUTHEAST NEBRASKA

CITY           SKY/WX    TMP DP  RH WIND       PRES   REMARKS
LINCOLN        MOSUNNY   83  68  60 SE9       30.09F
OMAHA EPPLEY   MOSUNNY   83  63  50 SE13      30.08S
BEATRICE       SUNNY     82  65  57 SE8       30.08F
FALLS CITY     SUNNY     80  69  69 SE7       30.07F
NEBRASKA CITY  SUNNY     79  64  60 SE6       30.09F
PLATTSMOUTH    SUNNY     80  65  61 SE8       30.10S
$$

NEZ044-045-051>053-067-261700-
OMAHA AREA

CITY           SKY/WX    TMP DP  RH WIND       PRES   REMARKS
OMAHA EPPLEY   MOSUNNY   83  63  50 SE13      30.08S
BLAIR          SUNNY     81  64  57 S9        30.09S
FREMONT        SUNNY     81  64  55 SE8       30.10S
MILLARD        SUNNY     82  65  57 SE9       30.08S
OFFUTT AFB     SUNNY     82  66  58 SE8       30.08S
PLATTSMOUTH    SUNNY     80  65  61 SE8       30.10S
WAHOO          FAIR      81  65  58 S12       30.09S
$$




USA.gov is the U.S. government's official web portal to all federal, state and local government web resources and services.